Powrót do katalogu

FENGYUN 1C DEB

AktywnySSO
NORAD 31550·DEBRIS·🇨🇳 China

Wystrzelony May 10, 1999 z Taiyuan Satellite Launch Center

Loading…

Następne Przeloty (najbliższe 24 godziny)

TLE

ŚwieżeSource: Space-Track

Epoka: Sep 12, 2026, 22:48 UTC

1 31550U 99025BYR 26255.95032257  .00000784  00000-0  20839-3 0  9996
2 31550  98.3217 253.0972 0188695 165.1818 195.5010 14.41310811694038

Śledź FENGYUN 1C DEB w czasie rzeczywistym z AllMySat

Download on the App Store